Flag for Germany Weather past 2 weeks in Westerstede, Lower Saxony, Germany

Now
43 °F

Partly sunny.


Feels Like: 35 °F
Forecast: 39 / 46 °F
Wind: 16 mph from South

Location: Wittmundhaven

Current Time: Feb 28, 2015 at 6:36:52 PM

Latest Report: Feb 28, 2015 at 5:20 PM


Visibility: N/A

Pressure: 29.86 "Hg

Humidity: 61%

Dew point: 30 °F

Location of WesterstedeLocation

Historic Weather in Westerstede — Graph

°F

Westerstede temperature yesterday

Maximum temperature yesterday: 43 °F (at 12:20 AM)
Minimum temperature yesterday: 36 °F (at 10:20 PM)
Average temperature yesterday: 41 °F

Past Weeks' High & Low Weather Summary

 TemperatureHumidityPressure
High48 °F (Feb 14, 2:20 PM)100% (Feb 17, 3:20 AM)30.69 "Hg (Feb 17, 3:20 AM)
Low25 °F (Feb 17, 6:20 AM)57% (Feb 28, 4:20 PM)29.21 "Hg (Feb 23, 6:20 AM)
Average38 °F87%29.92 "Hg
* Reported Feb 13 5:20 PM — Feb 28 5:20 PM, Westerstede, Weather by CustomWeather, © 2015

Note: Actual official high and low records may vary slightly from our data, if they occured in-between our weather recording intervals... More about our weather records

Advertising

Westerstede weather history for previous 24 hours

 ConditionsComfort  
Time TempWeatherWind HumidityBarometerVisibility
5:20 PM
Sat, Feb 28
43 °FPartly sunny.16 mph61%29.86 "HgN/A
4:20 PM45 °FPassing clouds.17 mph57%29.89 "HgN/A
3:20 PM45 °FPartly sunny.20 mph61%29.92 "HgN/A
2:20 PM43 °FPartly sunny.18 mph61%29.95 "HgN/A
1:20 PM43 °FScattered clouds.22 mph61%29.98 "HgN/A
12:20 PM41 °FPartly sunny.21 mph66%30.01 "HgN/A
11:20 AM37 °FPartly sunny.10 mph81%30.04 "HgN/A
10:20 AM36 °FPartly sunny.10 mph87%30.04 "HgN/A
9:20 AM36 °FPassing clouds.12 mph87%30.04 "HgN/A
8:20 AM32 °FPassing clouds.8 mph93%30.07 "Hg5 mi
7:20 AM30 °FChilly.8 mph93%30.07 "Hg5 mi
6:20 AM30 °FChilly.6 mph93%30.07 "HgN/A
5:20 AM30 °FChilly.7 mph93%30.07 "HgN/A
4:20 AM30 °FChilly.6 mph93%30.07 "HgN/A
3:20 AM30 °FChilly.3 mph100%30.09 "HgN/A
2:20 AM32 °FChilly.3 mph93%30.09 "HgN/A
1:20 AM32 °FChilly.5 mph100%30.09 "HgN/A
12:20 AM34 °FPassing clouds.3 mph93%30.07 "HgN/A
11:20 PM
Fri, Feb 27
36 °FPassing clouds.5 mph87%30.09 "HgN/A
10:20 PM36 °FPassing clouds.6 mph93%30.09 "HgN/A
9:20 PM37 °FPassing clouds.7 mph87%30.09 "HgN/A
8:20 PM37 °FPassing clouds.6 mph87%30.07 "HgN/A
7:20 PM37 °FPassing clouds.6 mph87%30.07 "HgN/A
6:20 PM39 °FPassing clouds.6 mph81%30.04 "HgN/A
Weather by CustomWeather, © 2015

See weather overviewHow to use our weather pages